Regional Weather Roundup
Issued by NWS

Home | Current Version | Previous Version | Graphics & Text | Print | Product List | Glossary On
Versions: 1 2 3 4 5 6 7 8 9 10 11 12 13 14 15 16 17 18 19 20 21 22 23 24 25 26 27 28 29 30 31 32 33 34 35 36 37 38 39 40 41 42 43 44 45 46 47 48 49 50
000
ASUS45 KSLC 010110
RWRUT

UTAH REGIONAL WEATHER ROUNDUP
NATIONAL WEATHER SERVICE SALT LAKE CITY UT
600 PM MST SAT FEB 28 2015

UTZ001>011-023>025-010200-

NORTHERN UTAH

CITY           SKY/WX    TMP DP  RH WIND       PRES   REMARKS
BRIGHAM CITY   CLOUDY    43  17  35 E10       29.77R
HILL AFB       CLOUDY    34  27  75 E15G23    29.78R WCI  24
LOGAN          CLOUDY    42  17  36 SE8       29.77R
OGDEN          CLOUDY    39  25  57 S6        29.77R WCI  35
PROVO AIRPORT  LGT SNOW  36  30  80 N6        29.78R WCI  31
SALT LAKE CITY LGT RAIN  36  32  85 CALM      29.79R
VERNAL         LGT SNOW  33  29  85 N7        29.79R FOG     WCI  27
WENDOVER       CLOUDY    39  28  65 N12       29.80R WCI  32
HEBER CITY     LGT SNOW  30  28  93 N9        29.76R WCI  22
WEST JORDAN    CLOUDY    32  32 100 CALM      29.79R

$$

UTZ012>022-026-027-010200-

SOUTHERN/CENTRAL UTAH

CITY           SKY/WX    TMP DP  RH WIND       PRES   REMARKS
BLANDING       CLOUDY    32  32 100 CALM      29.90R VSB 1/2
CEDAR CITY     CLOUDY    34  31  88 CALM      29.75R
DELTA          CLOUDY    36  34  93 S7        29.77R WCI  30
HANKSVILLE     MOCLDY    37  32  81 N6        29.79R WCI  33
MILFORD        CLOUDY    36  32  85 S8        29.76R WCI  30
MOAB/CYNLANDS  CLOUDY    38  32  79 E9        29.75R WCI  31
PRICE          CLOUDY    35  29  78 S5        29.74R WCI  31
ST GEORGE      CLOUDY    54  34  47 S3        29.77R
KANAB            N/A     41  30  65 S12       29.81R

$$

REGIONAL REPORTS     COLORADO/ARIZONA

CITY           SKY/WX    TMP DP  RH WIND       PRES   REMARKS
CRAIG, CO      CLOUDY    33  24  69 SW9       29.76R WCI  25
GRAND JUNCTION CLOUDY    40  28  62 S9        29.77R WCI  34
RIFLE          CLOUDY    37  23  56 W6        29.77R WCI  32
MONTROSE       CLOUDY    34  29  82 SE8       29.83R WCI  27
CORTEZ         PTCLDY    31  30  96 CALM      29.85R FOG
PAGE, AZ       MOCLDY    44  37  76 N7        29.79R
GRAND CANYON   CLOUDY    38  27  64 SW10      29.83R WCI  31
KINGMAN        MOCLDY    54  28  36 SW25G32   29.78R
FLAGSTAFF      LGT RAIN  35  32  88 SW14      29.85R FOG     WCI  26

$$

REGIONAL REPORTS    NEVADA/IDAHO/WYOMING

CITY           SKY/WX    TMP DP  RH WIND       PRES   REMARKS
LAS VEGAS, NV  PTCLDY    60  24  25 S18G28    29.68R
ELY            CLOUDY    31  30  96 W5        29.74R WCI  26
ELKO           MOCLDY    36  29  75 NE14      29.76R WCI  27
POCATELLO, ID  PTCLDY    40  10  29 N18       29.82R WCI  31
BURLEY         MOCLDY    42  14  32 NE7       29.80R
EVANSTON, WY   LGT SNOW  25  22  88 E9        29.77R FOG     WCI  15
ROCK SPRINGS   CLOUDY    18   9  68 NE21      29.82R WCI   1

$$



USA.gov is the U.S. government's official web portal to all federal, state and local government web resources and services.